McCall, ID

9:38 AM MST on November 20, 2017 (GMT -0700)
McCall

Weather History for KMYL - August, 2013

Change the Weather History Date:

Tuesday, August 13, 2013

  Actual Average Record
Temperature  
Mean Temperature 70 °F 60 °F  
Max Temperature 85 °F 79 °F 92 °F (1992)
Min Temperature 55 °F 42 °F 29 °F (1995)
Degree Days  
Heating Degree Days 0 5  
Month to date heating degree days 22 55  
Since 1 June heating degree days 302 572  
Since 1 July heating degree days 39 205  
Cooling Degree Days 5 0  
Month to date cooling degree days 27 7  
Year to date cooling degree days 150 23  
Since 1 June cooling degree days 150 23  
Growing Degree Days 20 (Base 50)    
Moisture  
Dew Point 40 °F    
Average Humidity 45    
Maximum Humidity 77    
Minimum Humidity 13    
Precipitation  
Precipitation 0.03 in 0.03 in 0.58 in (1997)
Month to date precipitation 0.04 0.24  
Year to date precipitation 11.29 12.60  
Sea Level Pressure  
Sea Level Pressure 30.00 in    
Wind  
Wind Speed 5 mph (NNE)    
Max Wind Speed 18 mph    
Max Gust Speed 23 mph    
Visibility 10 miles    
Events Rain    
T = Trace of Precipitation, MM = Missing Value Source: NWS Daily Summary

Daily Weather History Graph

Daily Weather History Graph

Search for Another Location

Airport or City:

Trip Planner

Search our weather history database for the weather conditions in past years. The results will help you decide how hot, cold, wet, or windy it might be!

Date:

Astronomy

Aug. 13, 2013 Rise Set
Actual Time 6:44 AM MDT 8:53 PM MDT
Civil Twilight 6:12 AM MDT 9:25 PM MDT
Nautical Twilight 5:32 AM MDT 10:04 PM MDT
Astronomical Twilight 4:48 AM MDT 10:48 PM MDT
Moon 2:04 PM MDT (8/13) No Moon Set
Length of Visible Light 15h 12m
Length of Day
14h 08m
Waxing Crescent, 42% of the Moon is Illuminated
Aug 13
Waxing Crescent
Aug 14
First Quarter
Aug 20
Full
Aug 28
Last Quarter
Sep 5
New

Hourly Weather History & Observations

Time (MDT) Temp. Dew Point Humidity Pressure Visibility Wind Dir Wind Speed Gust Speed Precip Events Conditions
12:51 AM 66.0 °F 42.1 °F 42% 29.99 in 10.0 mi North 10.4 mph - N/A   Clear
1:51 AM 66.0 °F 41.0 °F 40% 29.99 in 10.0 mi NNE 6.9 mph - N/A   Partly Cloudy
2:51 AM 66.9 °F 39.9 °F 37% 29.96 in 10.0 mi NNE 10.4 mph - N/A   Clear
3:51 AM 66.0 °F 39.9 °F 38% 29.98 in 10.0 mi North 5.8 mph - N/A   Mostly Cloudy
4:51 AM 61.0 °F 45.0 °F 56% 30.09 in 8.0 mi SW 13.8 mph 23.0 mph 0.00 in Rain Rain
5:51 AM 59.0 °F 45.0 °F 60% 30.01 in 10.0 mi ENE 11.5 mph - 0.03 in   Partly Cloudy
6:51 AM 55.0 °F 46.9 °F 74% 30.04 in 10.0 mi East 3.5 mph - N/A   Clear
7:51 AM 55.0 °F 48.9 °F 80% 30.06 in 10.0 mi Calm Calm - N/A   Clear
8:51 AM 59.0 °F 48.0 °F 67% 30.06 in 10.0 mi Calm Calm - N/A   Clear
9:51 AM 63.0 °F 48.0 °F 58% 30.06 in 10.0 mi Calm Calm - N/A   Clear
10:51 AM 70.0 °F 46.0 °F 42% 30.04 in 10.0 mi Calm Calm - N/A   Clear
11:51 AM 75.0 °F 45.0 °F 34% 30.03 in 10.0 mi Variable 4.6 mph - N/A   Clear
12:51 PM 77.0 °F 39.0 °F 25% 30.02 in 10.0 mi Variable 4.6 mph - N/A   Clear
1:51 PM 79.0 °F 37.0 °F 22% 30.00 in 10.0 mi ESE 4.6 mph - N/A   Clear
2:51 PM 79.0 °F 37.0 °F 22% 30.00 in 10.0 mi Variable 4.6 mph - N/A   Mostly Cloudy
3:51 PM 80.1 °F 34.0 °F 19% 29.99 in 10.0 mi West 8.1 mph - N/A   Clear
4:51 PM 84.0 °F 30.0 °F 14% 29.97 in 10.0 mi Variable 6.9 mph - N/A   Clear
5:51 PM 84.0 °F 28.0 °F 13% 29.95 in 10.0 mi Variable 3.5 mph - N/A   Partly Cloudy
6:51 PM 82.9 °F 30.9 °F 15% 29.96 in 10.0 mi Variable 3.5 mph - N/A   Mostly Cloudy
7:51 PM 81.0 °F 28.9 °F 15% 29.96 in 10.0 mi Calm Calm - N/A   Partly Cloudy
8:51 PM 77.0 °F 34.0 °F 21% 29.96 in 10.0 mi North 3.5 mph - N/A   Clear
9:51 PM 71.1 °F 41.0 °F 34% 29.98 in 10.0 mi NNE 8.1 mph - N/A   Clear
10:51 PM 69.1 °F 39.0 °F 33% 29.98 in 10.0 mi North 5.8 mph - N/A   Clear
11:51 PM 68.0 °F 39.9 °F 36% 29.98 in 10.0 mi North 8.1 mph - N/A   Clear